Location: New Canada
(47.1017°N, 68.5042°W)
Time: 13:34:58
(UTC+00:00)

N. Korean satellite - Pass Details

Date: 01 December 2022
Orbit: 407 x 441 km, 97.3° (Epoch: 05 February)

Event Time Altitude Azimuth Distance (km) Brightness Sun altitude
Rises 09:58:54 0° 12° (NNE) 2,532 10.2 -19.8°
Reaches altitude 10° 10:00:59 10° 12° (NNE) 1,647 9.3 -19.5°
Maximum altitude 10:04:32 89° 281° (W) 476 6.4 -18.9°
Drops below altitude 10° 10:08:00 10° 194° (SSW) 1,614 9.2 -18.3°
Sets 10:09:58 0° 194° (SSW) 2,455 10.1 -18.0°
